[Date Prev][Date Next][Thread Prev][Thread Next] - [Date Index][Thread Index][Author Index]
MIR & ISS & STS Keps
- Subject: [sarex] MIR & ISS & STS Keps
- From: "Dr Dave Larsen [ PhD ]" <doc@xxxxxxxxxxx>
- Date: Sat, 24 Jul 1999 08:34:39 -0700
MIR
1 16609U 86017A 99205.32197813 .00112659 00000-0 78531-3 0 7015
2 16609 51.6608 153.6683 0005657 343.5594 16.5484 15.73471572767255
ISS
1 25544U 98067A 99205.49340628 .00018007 00000-0 22069-3 0 7852
2 25544 51.5950 10.1628 0010455 130.0358 230.1552 15.60366151 38429
STS-93
1 25866U 99040A 99205.46254086 .00007489 -70653-5 11786-4 0 82
2 25866 28.4665 189.1924 0015991 204.5792 0.4231 15.96269302 191
----
Via the sarex mailing list at AMSAT.ORG courtesy of AMSAT-NA.
To unsubscribe, send "unsubscribe sarex" to Majordomo@amsat.org
AMSAT Home